• In Belarus
  • List of Countries
  • For 7 days
  • Water Temperature
  • Satellite Maps
  • Weather Map
  • Weather Widgets
  • user-avatar
    Login

    Hourly Weather Mohale's Hoek

    Today, 22 February, Friday

    Time Temperature Precipitation Wind Pressure Humidity
    00:00 +18°C° 0 mm 2 mps 635 mmHg 62%
    01:00 +18°C° 0 mm 2 mps 635 mmHg 67%
    02:00 +17°C° 0 mm 2 mps 635 mmHg 71%
    03:00 +18°C° 0 mm 1 mps 634 mmHg 73%
    04:00 +18°C° 0 mm 1 mps 634 mmHg 75%
    05:00 +16°C° 0 mm 1 mps 634 mmHg 76%
    06:00 +18°C° 0 mm 2 mps 634 mmHg 66%
    07:00 +20°C° 0 mm 2 mps 635 mmHg 56%
    08:00 +21°C° 0 mm 2 mps 636 mmHg 46%
    09:00 +24°C° 0 mm 3 mps 636 mmHg 39%
    10:00 +27°C° 0 mm 4 mps 636 mmHg 33%
    11:00 +29°C° 0 mm 5 mps 637 mmHg 27%
    12:00 +29°C° 0 mm 5 mps 636 mmHg 26%
    13:00 +30°C° 0 mm 6 mps 636 mmHg 25%
    14:00 +32°C° 0 mm 6 mps 635 mmHg 25%
    15:00 +30°C° 0 mm 5 mps 635 mmHg 24%
    16:00 +30°C° 0 mm 4 mps 634 mmHg 23%
    17:00 +30°C° 0 mm 3 mps 634 mmHg 23%
    18:00 +29°C° 0 mm 3 mps 634 mmHg 24%
    19:00 +27°C° 0 mm 3 mps 633 mmHg 26%
    20:00 +26°C° 0 mm 3 mps 633 mmHg 27%
    21:00 +25°C° 0 mm 3 mps 632 mmHg 30%
    22:00 +25°C° 0 mm 3 mps 632 mmHg 32%
    23:00 +24°C° 0 mm 2 mps 632 mmHg 34%

    Tomorrow, 23 February, Saturday

    Time Temperature Precipitation Wind Pressure Humidity
    00:00 +23°C° 0 mm 2 mps 632 mmHg 37%
    01:00 +21°C° 0 mm 2 mps 631 mmHg 40%
    02:00 +20°C° 0 mm 2 mps 630 mmHg 43%
    03:00 +19°C° 0 mm 2 mps 630 mmHg 46%
    04:00 +18°C° 0 mm 2 mps 630 mmHg 49%
    05:00 +17°C° 0 mm 2 mps 629 mmHg 51%
    06:00 +19°C° 0 mm 2 mps 630 mmHg 47%
    07:00 +21°C° 0 mm 2 mps 631 mmHg 43%
    08:00 +24°C° 0 mm 1 mps 632 mmHg 39%
    09:00 +25°C° 0 mm 2 mps 632 mmHg 34%
    10:00 +27°C° 0 mm 2 mps 632 mmHg 30%
    11:00 +29°C° 0 mm 2 mps 633 mmHg 25%
    12:00 +30°C° 0 mm 3 mps 633 mmHg 23%
    13:00 +32°C° 0 mm 4 mps 633 mmHg 22%
    14:00 +32°C° 0 mm 5 mps 633 mmHg 20%
    15:00 +32°C° 0 mm 5 mps 632 mmHg 22%
    16:00 +30°C° 0 mm 5 mps 632 mmHg 23%
    17:00 +30°C° 0 mm 5 mps 631 mmHg 24%
    18:00 +28°C° 0 mm 4 mps 631 mmHg 29%
    19:00 +25°C° 0 mm 3 mps 631 mmHg 33%
    20:00 +23°C° 0 mm 2 mps 631 mmHg 38%
    21:00 +21°C° 0 mm 2 mps 631 mmHg 42%
    22:00 +21°C° 0 mm 2 mps 631 mmHg 47%
    23:00 +20°C° 0 mm 2 mps 631 mmHg 52%

    Day after tomorrow, 24 February, Sunday

    Time Temperature Precipitation Wind Pressure Humidity
    00:00 +19°C° 0 mm 2 mps 631 mmHg 56%
    01:00 +18°C° 0 mm 2 mps 631 mmHg 61%
    02:00 +18°C° 0 mm 2 mps 630 mmHg 66%
    03:00 +17°C° 0 mm 2 mps 630 mmHg 68%
    04:00 +17°C° 0 mm 2 mps 630 mmHg 70%
    05:00 +16°C° 0 mm 1 mps 629 mmHg 72%
    06:00 +19°C° 0 mm 1 mps 630 mmHg 64%
    07:00 +21°C° 0 mm 1 mps 631 mmHg 55%
    08:00 +23°C° 0 mm 1 mps 632 mmHg 47%
    09:00 +25°C° 0 mm 1 mps 632 mmHg 40%
    10:00 +27°C° 0 mm 2 mps 633 mmHg 34%
    11:00 +29°C° 0 mm 2 mps 633 mmHg 27%
    12:00 +29°C° 0 mm 3 mps 633 mmHg 26%
    13:00 +30°C° 0 mm 4 mps 633 mmHg 25%
    14:00 +30°C° 0 mm 4 mps 632 mmHg 24%
    15:00 +30°C° 0 mm 5 mps 632 mmHg 25%
    16:00 +30°C° 0 mm 5 mps 632 mmHg 25%
    17:00 +30°C° 0 mm 5 mps 632 mmHg 25%
    18:00 +27°C° 0.1 mm 4 mps 632 mmHg 31%
    19:00 +25°C° 0.1 mm 3 mps 632 mmHg 37%
    20:00 +23°C° 0.1 mm 2 mps 632 mmHg 44%
    21:00 +21°C° 0.2 mm 2 mps 632 mmHg 48%
    22:00 +21°C° 0.2 mm 2 mps 632 mmHg 52%
    23:00 +20°C° 0.2 mm 2 mps 633 mmHg 56%

    25 February, Monday

    Time Temperature Precipitation Wind Pressure Humidity
    00:00 +19°C° 0 mm 2 mps 632 mmHg 60%
    01:00 +18°C° 0 mm 2 mps 632 mmHg 64%
    02:00 +17°C° 0 mm 2 mps 631 mmHg 67%
    03:00 +17°C° 0 mm 2 mps 631 mmHg 70%
    04:00 +16°C° 0 mm 1 mps 631 mmHg 73%
    05:00 +16°C° 0 mm 1 mps 631 mmHg 76%
    06:00 +18°C° 0 mm 1 mps 631 mmHg 70%
    07:00 +20°C° 0 mm 1 mps 632 mmHg 63%
    08:00 +21°C° 0 mm 1 mps 633 mmHg 57%
    09:00 +23°C° 0 mm 2 mps 633 mmHg 48%
    10:00 +26°C° 0 mm 2 mps 634 mmHg 39%
    11:00 +28°C° 0 mm 2 mps 634 mmHg 30%
    12:00 +29°C° 0 mm 3 mps 634 mmHg 28%
    13:00 +29°C° 0 mm 3 mps 633 mmHg 26%
    14:00 +30°C° 0 mm 4 mps 633 mmHg 24%
    15:00 +30°C° 0 mm 4 mps 633 mmHg 26%
    16:00 +30°C° 0 mm 4 mps 632 mmHg 27%
    17:00 +29°C° 0 mm 4 mps 632 mmHg 28%
    18:00 +27°C° 0 mm 3 mps 631 mmHg 34%
    19:00 +25°C° 0 mm 2 mps 631 mmHg 40%
    20:00 +22°C° 0 mm 1 mps 630 mmHg 45%
    21:00 +22°C° 0 mm 1 mps 630 mmHg 45%
    22:00 +21°C° 0 mm 2 mps 630 mmHg 45%
    23:00 +21°C° 0 mm 2 mps 631 mmHg 45%

    26 February, Tuesday

    Time Temperature Precipitation Wind Pressure Humidity
    00:00 +20°C° 0 mm 2 mps 630 mmHg 46%
    01:00 +20°C° 0 mm 2 mps 630 mmHg 48%
    02:00 +19°C° 0 mm 2 mps 629 mmHg 49%
    03:00 +19°C° 0 mm 2 mps 629 mmHg 52%
    04:00 +19°C° 0 mm 1 mps 629 mmHg 55%
    05:00 +18°C° 0 mm 1 mps 628 mmHg 59%
    06:00 +19°C° 0.1 mm 2 mps 629 mmHg 56%
    07:00 +20°C° 0.1 mm 2 mps 629 mmHg 53%
    08:00 +22°C° 0.1 mm 3 mps 630 mmHg 50%
    09:00 +25°C° 0 mm 4 mps 630 mmHg 45%
    10:00 +27°C° 0 mm 6 mps 630 mmHg 40%
    11:00 +28°C° 0 mm 7 mps 631 mmHg 36%
    12:00 +29°C° 0 mm 7 mps 630 mmHg 29%
    13:00 +31°C° 0 mm 8 mps 630 mmHg 23%
    14:00 +32°C° 0 mm 8 mps 630 mmHg 16%
    15:00 +31°C° 0 mm 8 mps 630 mmHg 18%
    16:00 +29°C° 0 mm 9 mps 630 mmHg 19%
    17:00 +28°C° 0 mm 9 mps 630 mmHg 21%
    18:00 +27°C° 0 mm 8 mps 629 mmHg 26%
    19:00 +24°C° 0 mm 6 mps 629 mmHg 32%
    20:00 +22°C° 0 mm 4 mps 629 mmHg 37%
    21:00 +20°C° 0 mm 3 mps 629 mmHg 45%
    22:00 +19°C° 0 mm 2 mps 629 mmHg 53%
    23:00 +16°C° 0 mm 0 mps 629 mmHg 61%

    27 February, Wednesday

    Time Temperature Precipitation Wind Pressure Humidity
    00:00 +18°C° 0 mm 1 mps 629 mmHg 61%
    01:00 +16°C° 0 mm 1 mps 629 mmHg 62%
    02:00 +16°C° 0 mm 1 mps 629 mmHg 62%
    03:00 +15°C° 0 mm 1 mps 629 mmHg 67%
    04:00 +14°C° 0 mm 1 mps 629 mmHg 73%
    05:00 +14°C° 0 mm 1 mps 629 mmHg 78%
    06:00 +15°C° 0.1 mm 1 mps 630 mmHg 73%
    07:00 +16°C° 0.1 mm 1 mps 630 mmHg 68%
    08:00 +19°C° 0.1 mm 1 mps 631 mmHg 63%
    09:00 +19°C° 0 mm 2 mps 632 mmHg 52%
    10:00 +21°C° 0 mm 3 mps 632 mmHg 40%
    11:00 +24°C° 0 mm 3 mps 633 mmHg 28%
    12:00 +25°C° 0 mm 4 mps 633 mmHg 24%
    13:00 +26°C° 0 mm 4 mps 633 mmHg 20%
    14:00 +27°C° 0 mm 5 mps 633 mmHg 16%
    15:00 +27°C° 0 mm 5 mps 633 mmHg 16%
    16:00 +26°C° 0 mm 5 mps 633 mmHg 16%
    17:00 +26°C° 0 mm 6 mps 632 mmHg 16%
    18:00 +22°C° 0 mm 4 mps 632 mmHg 20%
    19:00 +20°C° 0 mm 3 mps 632 mmHg 23%
    20:00 +17°C° 0 mm 2 mps 632 mmHg 27%
    21:00 +16°C° 0 mm 1 mps 632 mmHg 32%
    22:00 +15°C° 0 mm 1 mps 632 mmHg 36%
    23:00 +14°C° 0 mm 1 mps 632 mmHg 41%
    Show more